Miscellaneous Local Product
Issued by NWS North Platte, NE

Home | Current Version | Previous Version | Graphics & Text | Print | Product List | Glossary On
Versions: 1 2 3 4 5 6 7 8 9 10 11 12 13 14 15 16 17 18 19 20 21 22 23 24 25 26 27 28 29 30 31 32 33 34 35 36 37 38 39 40 41 42 43 44 45 46 47 48 49 50
000
AXUS43 KLBF 211910
MISLBF


WESTERN AND NORTH CENTRAL NEBRASKA HOURLY WEATHER ROUNDUP
NATIONAL WEATHER SERVICE NORTH PLATTE NE
200 PM CDT TUE OCT 21 2014

***STATIONS NOT REPORTING VARIABLES SUCH AS SKY/WEATHER OR
PRESSURE ARE PROVIDED BY THE NEBRASKA DEPARTMENT OF
ROADS...RAWS...AND APRS NETWORKS...AND ARE NOT UNDER
NATIONAL WEATHER SERVICE QUALITY CONTROL***

...OBSERVATIONS IN AND NEAR THE EASTERN PANHANDLE OF NEBRASKA...

CITY           SKY/WX    TMP DP  RH WIND       PRES   REMARKS
PINE RIDGE       N/A     75  49  39 S15G22    29.85  HAZE
CHADRON        MOSUNNY   82  43  25 SW14      29.82F
ALLIANCE       SUNNY     71  48  43 S14       29.91F
SIDNEY         SUNNY     70  48  45 S13       29.95F
WHITECLAY        N/A     74  47  38 S13         N/A
RUSHVILLE        N/A     78  41  26 S18         N/A
CRESCENT LAKE    N/A     72  50  45 S9G20       N/A
LISCO            N/A     77  42  28 E14         N/A
BIG SPRINGS      N/A     68  55  62 SE9         N/A
LEWELLEN         N/A     77  54  45 S15         N/A
$$

...OBSERVATIONS IN NORTH CENTRAL NEBRASKA...

CITY           SKY/WX    TMP DP  RH WIND       PRES   REMARKS
VALENTINE      SUNNY     76  44  32 S22G37    29.90F
THEDFORD       SUNNY     74  50  42 S23G30    29.96F
AINSWORTH      SUNNY     75  37  24 S23G31    29.94F
O`NEILL        SUNNY     77  41  27 S20G29    29.98F
ORD            SUNNY     76  40  27 S18G26    29.99F
BROKEN BOW     LGT RAIN  76  39  26 S21       29.99F
BROWNLEE         N/A     77  47  34 S28         N/A
SPRINGVIEW       N/A     78  40  26 S16G26      N/A
BREWSTER         N/A     79  37  22 S23         N/A
ROSE             N/A     78  39  24 SE24        N/A
NEWPORT          N/A     78  36  21 S18         N/A
SARGENT          N/A     74  39  27 S3G13       N/A
COMSTOCK         N/A     81  37  20 S15         N/A
CHAMBERS         N/A     76  43  31 S12G22      N/A
$$

...OBSERVATIONS IN SOUTHWEST NEBRASKA AND FAR NORTHEAST COLORADO...

CITY           SKY/WX    TMP DP  RH WIND       PRES   REMARKS
WRAY           FAIR      82  42  24 S20G29    29.94F
HOLYOKE        FAIR      79  46  31 S15G22    29.93F
IMPERIAL       SUNNY     74  54  49 S17G28    29.95F
OGALLALA       SUNNY     75  55  50 S21G29    29.94F
NORTH PLATTE   SUNNY     75  54  47 S20       29.95F
MCCOOK         SUNNY     78  56  46 S18G26    29.98F
LEXINGTON      SUNNY     75  51  42 S17G23    30.00F
PAXTON           N/A     70  58  64 SE12        N/A
SUTHERLAND       N/A     78  57  49 S17         N/A
BRADY            N/A     72  57  58 CALM        N/A
GOTHENBURG       N/A     71  45  39 S13         N/A
CALLAWAY         N/A     71  47  41 S24         N/A
$$

...SOME WEATHER OBSERVATIONS FROM AROUND THE REGION...

CITY           SKY/WX    TMP DP  RH WIND       PRES   REMARKS
DENVER         MOSUNNY   76  33  21 W7        29.97F
LARAMIE        MOSUNNY   64  34  32 SW22G29   30.06F
CHEYENNE       PTSUNNY   70  35  27 MISG      30.00F
SCOTTSBLUFF    SUNNY     73  45  36 SE12      29.90F
RAPID CITY     SUNNY     79  45  29 S20       29.77F
PIERRE         SUNNY     84  39  20 S26G41    29.79F
WINNER         FAIR      81  37  20 S30G40    29.88F
SIOUX FALLS    SUNNY     72  44  36 S14G23    30.00F
OMAHA          SUNNY     72  40  31 S10       30.07F
GRAND ISLAND   SUNNY     78  39  24 S16G24    30.03F
KANSAS CITY    SUNNY     72  44  36 VRB3      30.10F
WICHITA        MOSUNNY   79  56  45 SE9       30.05F
HAYS           SUNNY     75  59  57 S17       30.03F
LIBERAL        PTSUNNY   79  52  38 SW15      30.06F
GOODLAND       SUNNY     73  54  51 S20       30.00F
$$



USA.gov is the U.S. government's official web portal to all federal, state and local government web resources and services.